Regional Weather Roundup
Issued by NWS Sioux Falls, SD

Home | Current Version | Previous Version | Graphics & Text | Print | Product List | Glossary Off
Versions: 1 2 3 4 5 6 7 8 9 10 11 12 13 14 15 16 17 18 19 20 21 22 23 24 25 26 27 28 29 30 31 32 33 34 35 36 37 38 39 40 41 42 43 44 45 46 47 48 49 50

000
ASUS43 KFSD 220910
RWRFSD

WEATHER ROUNDUP FOR SE SOUTH DAKOTA/SW MINNESOTA/NW IOWA
NATIONAL WEATHER SERVICE SIOUX FALLS SD
300 AM CST MON DEC 22 2014

NOTE: "FAIR" INDICATES FEW OR NO CLOUDS BELOW 12,000 FEET WITH NO
SIGNIFICANT WEATHER AND OR OBSTRUCTIONS TO VISIBILITY.


SDZ038>040-050-052>070-221000-
SOUTHEAST SOUTH DAKOTA

CITY           SKY/WX    TMP DP  RH WIND       PRES   REMARKS
CHAMBERLAIN    DRIZZLE   32  30  92 NW7       29.44S WCI  26
HURON          CLOUDY    36  35  96 S9        29.44R
MADISON        LGT RAIN  36  36 100 S13       29.48S
MITCHELL       LGT RAIN  37  36  96 S12       29.46S FOG
SIOUX FALLS    LGT RAIN  40  39  97 S16       29.51S
WINNER         CLOUDY    39  36  89 W16       29.45R
YANKTON        CLOUDY    39  39 100 S9        29.50F
$$

MNZ071-072-080-081-089-090-097-098-221000-
SOUTHWEST MINNESOTA

CITY           SKY/WX    TMP DP  RH WIND       PRES   REMARKS
FAIRMONT       CLOUDY    39  36  87 SE16      29.62F
JACKSON        CLOUDY    37  37 100 S12G21    29.59F FOG
LUVERNE        LGT RAIN  39  37  93 S10       29.53F
MARSHALL       CLOUDY    39  36  87 S12       29.54S
MONTEVIDEO     CLOUDY    37  37 100 S12       29.56S FOG
PIPESTONE      DRIZZLE   37  37 100 S10G16    29.51S
REDWOOD FALLS  CLOUDY    39  37  92 SE15      29.58F FOG
TRACY          RAIN      39  38  97 S14       29.55S
WINDOM         CLOUDY    39  39 100 S9        29.58S FOG
WORTHINGTON    CLOUDY    39 -11  11 S15       29.56S
$$

IAZ001>003-012>014-020>022-031-032-NEZ013-014-SDZ071-221000-
NORTHWEST IOWA

CITY           SKY/WX    TMP DP  RH WIND       PRES   REMARKS
CHEROKEE       CLOUDY    40  40 100 S15       29.58F FOG
DENISON        CLOUDY    41  41 100 S18G25    29.58F
ESTHERVILLE    LGT RAIN  38  38 100 S20       29.60F FOG
LE MARS        MIX PCPN  43  41  93 S14G21    29.55F
ORANGE CITY    DRIZZLE   41  39  93 S9        29.55S
SHELDON        CLOUDY    39  39 100 S16       29.54F FOG
SIOUX CITY     LGT RAIN  43  41  93 S14       29.55F FOG
SPENCER        LGT RAIN  40  38  93 S15       29.58F FOG
STORM LAKE     CLOUDY    39  39 100 S17       29.59F FOG
$$

ABBREVIATIONS USED IN REMARKS
   TC - TEMPERATURE IN CELSIUS
  WCI - WIND CHILL INDEX
   HX - HEAT INDEX
  VSB - VISIBILITY




USA.gov is the U.S. government's official web portal to all federal, state and local government web resources and services.